User: anonymous   Login
Location: Bretagne
(43.8474°N, 0.4650°W)
Time: 01:50:44
(UTC+00:00)
Language:

IRS-P3 - Orbit

View from above orbital plane
View from above orbital plane
View from above satellite
View from above satellite

Ground track
Ground track

The orbit is defined by the following mean orbital elements,

1 23827U          26070.76113019 +.00000000 +00000-0 +93863-4 0 00001
2 23827  99.0378  91.6336 0002843 202.8313 157.2738 14.23703449    04
Epoch (UTC): 11 March 2026 18:16:01
Eccentricity: 0.0002843
inclination: 99.0378°
perigee height: 811 km
apogee height: 815 km
right ascension of ascending node: 91.6336°
argument of perigee: 202.8313°
revolutions per day: 14.23703449
mean anomaly at epoch: 157.2738°

The dashed part of the orbit path shows where the satellite is in the earth's shadow,  

DLR